Location: *
(33.8649°S, 62.1526°E)
Time: 18:21:47
(UTC+00:00)

BlueWalker 3 - Visible Passes

Search period start: 27 November 2022 00:00
Search period end: 07 December 2022 00:00
Orbit: 500 x 519 km, 53.2° (Epoch: 27 November)

Date Brightness Start Highest point End Pass type
(mag) Time Alt. Az. Time Alt. Az. Time Alt. Az.
27 Nov 3.0 22:55:26 26° N 22:56:54 37° NE 23:00:33 10° ESE visible
28 Nov 2.7 22:37:54 37° NNE 22:38:32 40° NE 22:42:15 10° ESE visible
29 Nov 2.7 22:20:18 43° ENE 22:20:18 43° ENE 22:23:56 10° ESE visible
29 Nov 3.8 23:55:56 10° W 23:58:59 21° SW 00:02:05 10° SSE visible
30 Nov 3.0 22:02:37 40° E 22:02:37 40° E 22:05:36 10° SE visible
30 Nov 3.9 23:37:41 10° W 23:40:39 20° SW 23:43:39 10° SSE visible
01 Dec 3.5 21:44:52 33° ESE 21:44:52 33° ESE 21:47:16 10° SE visible
01 Dec 4.0 23:19:41 11° WSW 23:22:19 19° SSW 23:25:13 10° SSE visible
02 Dec 4.0 21:27:03 26° ESE 21:27:03 26° ESE 21:28:55 10° SE visible
02 Dec 4.1 23:01:51 13° WSW 23:03:59 18° SSW 23:06:46 10° SSE visible
03 Dec 4.4 21:09:10 21° SE 21:09:10 21° SE 21:10:33 10° SE visible
03 Dec 4.2 22:43:58 14° WSW 22:45:38 17° SSW 22:48:18 10° S visible
04 Dec 4.7 20:51:13 17° SE 20:51:13 17° SE 20:52:11 10° SE visible
04 Dec 4.3 22:26:01 14° SW 22:27:17 16° SSW 22:29:50 10° S visible
05 Dec 4.9 20:33:13 14° SE 20:33:13 14° SE 20:33:48 10° SE visible
05 Dec 4.3 22:08:00 14° SW 22:08:55 15° SSW 22:11:21 10° S visible
06 Dec 5.1 20:15:09 12° SE 20:15:09 12° SE 20:15:24 10° SE visible
06 Dec 4.5 21:49:56 14° SW 21:50:34 15° SSW 21:52:50 10° S visible
